John Wayne Airport-Orange County Airport
KSNA : now visible

Airfield :











YOU CAN JOIN US ON...

 
LOGIN :

Register | Disclaimer

   EN    FR    IT 

 









Legend :    VFR   Marginal VFR   IFR   Intensive IFR   Very Intensive IFR
Visi :
Ceiling :
>= 8 km
>= 3000ft
5 to 8 km
1000 to 3000 ft
1500m to 5 km
500 to 1000 ft
800 to 1500m
200 to 500 ft
< 800m
< 200 ft
Symbols :   Thunderstorms  Fog  Heavy snow  Heavy precipitations  Wind > 20 kt






- Airport Elevation : 56 ft
- IATA code : SNA


KSNA - John Wayne -Orange County

CURRENT METAR :
  • 170153Z 18003KT 10SM FEW180 23/02 A2991 RMK AO2 SLP126 T02330022

EXPIRED METARs :
  • 170053Z 18004KT 10SM CLR 26/03 A2990 RMK AO2 SLP125 T02560028
  • 162353Z 20007KT 10SM CLR 28/M01 A2991 RMK AO2 SLP126 T02831011 10311 20283 58008

TAF KSNA
Valid from the 17 at 00:00 until the 18 at 00:00 UTC


162337Z 1700/1724 23007KT P6SM SKC
FM170100 VRB04KT P6SM SKC
FM171300 VRB04KT P6SM FEW004 SCT250
FM171700 20005KT P6SM FEW007 SCT250
FM172000 22008KT P6SM FEW009
KZLA FIR / North America



MET'MAP, your aeronautical weather chart ! - Copyright ORBIFLY December 2007 - Disclaimer

ORBIFLY MET'MAP TEAM :

Programming & Development : Alexandra Zaïnal
Concept & original design : Baudouin d'Aumeries
Assistance for programming : Marc-Olivier Méhu
Technical & hardware support : Manuel Goepfert

Contact : metmap@orbifly.com




SOURCES & CREDITS :

   NOAA       Earth
Advisory